Flag for U.S.A. Weather past 2 weeks in New Salem, North Dakota, U.S.A.

Now
65 °F

Sunny.


Feels Like: 65 °F
Forecast: 54 / 83 °F
Wind: 7 mph from West

Location: Bismarck Municipal Airport

Current Time: Jul 30, 2015 at 9:35:35 AM

Latest Report: Jul 30, 2015 at 8:52 AM


Visibility: 10 mi

Pressure: 30.13 "Hg (27.87 "Hg at 664m altitude)

Humidity: 59%

Dew point: 50 °F

Location of New SalemLocation

Historic Weather in New Salem — Graph

°F

New Salem temperature yesterday

Maximum temperature yesterday: 83 °F (at 4:52 PM)
Minimum temperature yesterday: 60 °F (at 12:52 AM)
Average temperature yesterday: 71 °F

Past Weeks' High & Low Weather Summary

 TemperatureHumidityPressure
High94 °F (Jul 23, 4:52 PM)97% (Jul 16, 3:52 AM)30.13 "Hg (Jul 16, 3:52 AM)
Low51 °F (Jul 21, 4:52 AM)22% (Jul 19, 5:52 PM)29.56 "Hg (Jul 28, 12:52 AM)
Average72 °F65%29.83 "Hg
* Reported Jul 15 7:52 AM — Jul 30 7:52 AM, New Salem, Weather by CustomWeather, © 2015

Note: Actual official high and low records may vary slightly from our data, if they occured in-between our weather recording intervals... More about our weather records

Advertising

New Salem weather history for previous 24 hours

 ConditionsComfort  
Time TempWeatherWind HumidityBarometerVisibility
7:52 AM
Thu, Jul 30
62 °FSunny.3 mph65%30.13 "Hg10 mi
6:52 AM57 °FClear.13 mph74%30.12 "Hg10 mi
5:52 AM56 °FClear.5 mph77%30.10 "Hg10 mi
4:52 AM56 °FClear.6 mph81%30.09 "Hg10 mi
3:52 AM57 °FClear.No wind78%30.09 "Hg10 mi
2:52 AM56 °FClear.3 mph81%30.09 "Hg10 mi
1:52 AM57 °FClear.3 mph81%30.09 "Hg10 mi
12:52 AM55 °FClear.No wind83%30.09 "Hg10 mi
11:52 PM
Wed, Jul 29
64 °FClear.6 mph63%30.07 "Hg10 mi
10:52 PM68 °FClear.6 mph57%30.06 "Hg10 mi
9:52 PM70 °FSunny.6 mph51%30.03 "Hg10 mi
8:52 PM77 °FSunny.8 mph37%30.01 "Hg10 mi
7:52 PM80 °FSunny.13 mph31%30.01 "Hg10 mi
6:52 PM82 °FSunny.16 mph28%30.01 "Hg10 mi
5:52 PM83 °FPassing clouds.16 mph27%30.02 "Hg10 mi
4:52 PM83 °FPassing clouds.17 mph30%30.02 "Hg10 mi
3:52 PM82 °FSunny.21 mph27%30.03 "Hg10 mi
2:52 PM78 °FSunny.22 mph33%30.03 "Hg10 mi
1:52 PM80 °FSunny.23 mph32%30.03 "Hg10 mi
12:52 PM79 °FSunny.23 mph34%30.02 "Hg10 mi
11:52 AM78 °FSunny.18 mph37%30.01 "Hg10 mi
10:52 AM75 °FSunny.20 mph40%30.01 "Hg10 mi
9:52 AM72 °FSunny.21 mph44%30.00 "Hg10 mi
Weather by CustomWeather, © 2015

See weather overviewHow to use our weather pages